KD2GO Weather Reports


time (UTC)temp
F
wind
direction
speed
knots
gust
knots
rain 1hr
in
rain 24hr
in
rain mn
in
humidity
%
barometer
mb
20260504004459 51 302 1.7 3.5 0.00 0.00 0.00 48 1011.8
20260504002958 52 323 0.9 4.3 0.00 0.00 0.00 47 1011.5
20260504001458 53 305 1.7 5.2 0.00 0.00 0.00 46 1011.3
20260504000001 54 300 1.7 3.5 0.00 0.00 0.00 44 1011.2
20260503234459 55 291 1.7 4.3 0.00 0.00 0.00 42 1011.0
20260503232959 56 298 2.6 7.0 0.00 0.00 0.00 39 1010.9
20260503231500 56 321 2.6 7.8 0.00 0.00 0.00 40 1010.9
20260503225959 56 262 2.6 7.8 0.00 0.00 0.00 38 1010.9
20260503224459 57 275 6.1 11.3 0.00 0.00 0.00 35 1010.8
20260503222958 58 290 5.2 13.0 0.00 0.00 0.00 34 1010.7
20260503221459 58 290 6.1 16.5 0.00 0.00 0.00 35 1010.7
20260503215959 58 288 5.2 12.2 0.00 0.00 0.00 34 1010.5
20260503213000 58 278 4.3 12.2 0.00 0.00 0.00 33 1010.5
20260503211500 57 333 5.2 12.2 0.00 0.00 0.00 35 1010.5
20260503205959 57 279 6.1 14.8 0.00 0.00 0.00 34 1010.5
20260503204458 57 292 7.0 15.6 0.00 0.00 0.00 34 1010.4
20260503202958 56 352 7.0 16.5 0.00 0.00 0.00 35 1010.6
20260503201458 56 261 5.2 13.0 0.00 0.00 0.00 38 1010.7
20260503194458 56 268 4.3 10.4 0.00 0.00 0.00 37 1011.0
20260503192959 55 287 7.0 15.6 0.00 0.00 0.00 38 1011.1
20260503190001 55 252 7.8 16.5 0.00 0.00 0.00 35 1011.3
20260503184459 55 311 7.0 16.5 0.00 0.00 0.00 36 1011.2
20260503182958 53 231 7.0 13.9 0.00 0.00 0.00 38 1011.3
20260503181500 54 294 7.8 19.1 0.00 0.00 0.00 36 1011.4
20260503174458 52 312 6.1 15.6 0.00 0.00 0.00 38 1011.6
20260503172958 52 269 6.1 12.2 0.00 0.00 0.00 41 1011.7
20260503171458 52 342 5.2 10.4 0.00 0.00 0.00 40 1011.9
20260503081457 43 261 1.7 5.2 0.00 0.01 0.00 61 1010.4
20260503071456 44 77 1.7 5.2 0.00 0.01 0.00 59 1010.2
20260503054458 45 309 0.9 3.5 0.00 0.01 0.00 59 1010.6
20260503052957 45 150 0.9 2.6 0.00 0.01 0.00 58 1010.7
20260503051457 46 283 1.7 6.1 0.00 0.01 0.00 58 1010.8
20260503050001 46 271 1.7 5.2 0.00 0.01 0.00 57 1010.9
20260503044500 46 251 2.6 4.3 0.00 0.01 0.00 57 1011.0
20260503043000 46 264 1.7 4.3 0.00 0.01 0.00 57 1011.3
20260503041500 46 322 1.7 3.5 0.00 0.01 0.00 56 1011.4
20260503035959 46 326 1.7 3.5 0.00 0.01 0.01 55 1011.3
20260503034500 46 234 0.9 2.6 0.00 0.01 0.01 56 1011.3
20260503032959 46 339 0.0 3.5 0.00 0.01 0.01 56 1011.3
20260503031459 47 292 0.0 1.7 0.00 0.01 0.01 54 1011.3
20260503030000 47 300 0.9 5.2 0.00 0.01 0.01 53 1011.4
20260503024459 48 276 1.7 8.7 0.00 0.01 0.01 52 1011.3
20260503022959 48 313 1.7 5.2 0.00 0.01 0.01 52 1011.4
20260503021500 48 311 0.9 4.3 0.00 0.01 0.01 53 1011.4
20260503020002 48 287 0.9 3.5 0.00 0.01 0.01 53 1011.5
20260503014501 49 267 2.6 6.1 0.00 0.01 0.01 50 1011.4
20260503013001 50 304 1.7 5.2 0.00 0.01 0.01 50 1011.4
20260503010001 50 285 2.6 6.1 0.00 0.01 0.01 47 1011.2